DW0000 Weather Reports


time (UTC)temp
F
wind
direction
speed
knots
gust
knots
rain 1hr
in
rain 24hr
in
rain mn
in
humidity
%
barometer
mb
20260906210005 57 312 14.8 20.0 0.00 0.05 0.05 87 1001.4
20260906205006 57 310 14.8 20.9 0.00 0.05 0.05 87 1001.3
20260906203007 57 313 19.1 27.8 0.00 0.05 0.05 89 1001.0
20260906202004 56 317 20.0 30.4 0.00 0.05 0.05 88 1001.3
20260906201005 56 307 13.9 20.0 0.00 0.05 0.05 87 1001.3
20260906200004 56 311 10.4 15.6 0.00 0.05 0.05 87 1001.2
20260906195505 56 320 8.7 12.2 0.00 0.05 0.05 87 1001.2
20260906194004 56 350 4.3 14.8 0.00 0.05 0.05 86 1000.9
20260906193005 56 354 7.8 12.2 0.00 0.05 0.05 86 1000.7
20260906192004 56 333 7.8 22.6 0.00 0.05 0.05 87 1001.0
20260906191504 57 325 17.4 22.6 0.00 0.05 0.05 87 1000.9
20260906191006 57 319 19.1 25.2 0.00 0.05 0.05 87 1001.1
20260906190005 57 323 15.6 24.3 0.00 0.05 0.05 87 1000.8
20260906185004 57 312 14.8 21.7 0.00 0.05 0.05 87 1001.1
20260906182506 57 320 14.8 20.0 0.00 0.05 0.05 89 1001.0
20260906174504 57 325 14.8 20.0 0.02 0.05 0.05 95 1001.4
20260906173504 58 323 14.8 22.6 0.02 0.05 0.05 96 1001.2
20260906172005 58 320 19.1 28.7 0.02 0.05 0.05 97 1001.3
20260906171004 58 319 15.6 22.6 0.02 0.04 0.04 97 1001.4
20260906165008 58 2 7.8 18.2 0.00 0.03 0.03 97 1001.2
20260906164507 58 356 10.4 15.6 0.01 0.03 0.03 96 1001.3
20260906162007 58 10 8.7 13.0 0.02 0.03 0.03 96 1001.7
20260906160506 58 1 9.6 19.1 0.02 0.03 0.03 96 1001.8
20260906155508 58 1 7.8 14.8 0.02 0.03 0.03 96 1001.9
20260906154506 58 1 10.4 13.9 0.02 0.02 0.02 95 1002.1
20260906154006 58 6 9.6 13.9 0.02 0.02 0.02 95 1002.2
20260906153506 58 7 9.6 15.6 0.02 0.02 0.02 95 1002.2
20260906152506 58 12 8.7 14.8 0.01 0.01 0.01 95 1002.2
20260906151006 58 28 6.1 11.3 0.00 0.01 0.01 94 1002.5
20260906150506 58 6 6.1 13.0 0.00 0.01 0.01 94 1002.6
20260906144506 58 16 6.1 12.2 0.00 0.00 0.00 93 1003.3
20260906144006 58 4 6.1 12.2 0.00 0.00 0.00 92 1003.3
20260906143506 58 25 7.8 14.8 0.00 0.00 0.00 92 1003.3
20260906143008 58 21 8.7 13.9 0.00 0.00 0.00 92 1003.5
20260906142506 58 12 7.8 13.9 0.00 0.00 0.00 91 1003.8
20260906141506 59 11 7.0 13.0 0.00 0.00 0.00 91 1004.1
20260906141006 59 7 7.8 11.3 0.00 0.00 0.00 90 1004.2
20260906135006 60 353 10.4 15.6 0.00 0.00 0.00 90 1004.6
20260906134507 60 356 10.4 17.4 0.00 0.00 0.00 90 1004.6
20260906133007 60 338 16.5 22.6 0.00 0.00 0.00 89 1005.0
20260906132508 60 341 7.0 18.2 0.00 0.00 0.00 88 1005.1
20260906130506 61 336 17.4 33.0 0.00 0.00 0.00 87 1005.3
20260906130008 61 317 13.0 18.2 0.00 0.00 0.00 86 1005.5
20260906125006 61 313 13.9 22.6 0.00 0.00 0.00 86 1005.6
20260906124005 61 322 15.6 25.2 0.00 0.00 0.00 86 1005.7
20260906122506 61 315 15.6 22.6 0.00 0.00 0.00 86 1005.8
20260906122007 61 332 17.4 26.1 0.00 0.00 0.00 86 1005.8
20260906121508 61 322 13.0 20.9 0.00 0.00 0.00 87 1006.0
20260906120007 61 313 14.8 20.9 0.00 0.00 0.00 87 1006.0
20260906114506 60 317 11.3 15.6 0.00 0.00 0.00 87 1006.2
20260906114008 60 332 11.3 14.8 0.00 0.00 0.00 87 1006.4
20260906113506 60 335 11.3 20.9 0.00 0.00 0.00 87 1006.5
20260906113006 60 322 10.4 20.0 0.00 0.00 0.00 87 1006.5
20260906112507 60 319 12.2 17.4 0.00 0.00 0.00 87 1006.7
20260906111506 60 319 11.3 17.4 0.00 0.00 0.00 87 1006.7
20260906111006 60 311 10.4 13.0 0.00 0.00 0.00 87 1006.9
20260906105007 61 341 10.4 13.9 0.00 0.00 0.00 87 1007.0
20260906101006 61 345 10.4 21.7 0.00 0.00 0.00 88 1007.5
20260906100005 61 320 12.2 20.0 0.00 0.00 0.00 88 1007.6
20260906095506 61 324 15.6 28.7 0.00 0.00 0.00 88 1007.6
20260906094507 61 320 14.8 26.1 0.00 0.00 0.00 88 1007.5
20260906092006 61 320 21.7 33.0 0.00 0.00 0.00 88 1007.8
20260906091507 61 314 22.6 31.3 0.00 0.00 0.00 88 1007.8
20260906091006 61 316 20.9 32.2 0.00 0.00 0.00 88 1008.1
20260906090007 61 313 26.1 35.6 0.00 0.00 0.00 88 1007.9
20260906085006 61 313 26.1 33.9 0.00 0.00 0.00 88 1008.0
20260906083508 61 320 22.6 33.0 0.00 0.00 0.00 88 1008.3
20260906081506 61 317 20.9 68.6 0.00 0.00 0.00 89 1008.4
20260906081008 61 314 18.2 28.7 0.00 0.00 0.00 90 1008.3
20260906075507 60 320 21.7 31.3 0.00 0.00 0.00 90 1008.5
20260906074006 60 317 20.9 26.9 0.00 0.00 0.00 92 1008.6
20260906073507 60 317 21.7 30.4 0.00 0.00 0.00 92 1008.9
20260906072006 60 320 21.7 33.0 0.00 0.00 0.00 93 1009.1
20260906071507 60 321 25.2 33.9 0.00 0.00 0.00 93 1009.0
20260906071006 59 316 26.1 33.9 0.00 0.00 0.00 93 1009.1
20260906070506 59 319 27.8 39.1 0.00 0.00 0.00 93 1009.1
20260906070007 59 318 28.7 37.4 0.00 0.00 0.00 92 1009.3
20260906065505 59 315 26.9 34.8 0.00 0.00 0.00 92 1009.1
20260906064006 60 323 27.8 35.6 0.00 0.00 0.00 89 1009.5
20260906063006 60 319 26.9 35.6 0.00 0.00 0.00 88 1009.4
20260906062006 60 312 26.9 34.8 0.00 0.00 0.00 87 1009.5
20260906061505 60 321 27.8 40.0 0.00 0.00 0.00 86 1009.6
20260906060505 60 317 29.5 39.1 0.00 0.00 0.00 86 1009.5
20260906054005 60 322 19.1 34.8 0.00 0.00 0.00 84 1010.0
20260906052006 60 324 19.1 26.9 0.00 0.00 0.00 83 1010.2
20260906051506 60 308 22.6 28.7 0.00 0.00 0.00 82 1010.2
20260906051007 60 315 16.5 28.7 0.00 0.00 0.00 81 1010.3
20260906050507 60 325 20.0 31.3 0.00 0.00 0.00 80 1010.2
20260906045507 60 325 15.6 22.6 0.00 0.00 0.00 79 1010.3
20260906045006 60 321 13.9 20.9 0.00 0.00 0.00 79 1010.3
20260906044505 60 321 14.8 22.6 0.00 0.00 0.00 78 1010.5
20260906044006 60 316 18.2 24.3 0.00 0.00 0.00 78 1010.4
20260906041006 60 321 20.0 27.8 0.00 0.00 0.00 76 1010.9
20260906040005 61 327 21.7 27.8 0.00 0.00 0.00 76 1011.0
20260906035505 61 310 20.9 26.9 0.00 0.00 0.00 75 1011.2
20260906034505 62 318 20.9 30.4 0.00 0.00 0.00 75 1011.2
20260906034006 62 320 15.6 25.2 0.00 0.00 0.00 77 1011.4
20260906032505 61 316 26.1 33.9 0.00 0.00 0.00 77 1011.3
20260906031006 60 325 25.2 35.6 0.00 0.00 0.00 81 1011.9
20260906030005 61 326 19.1 31.3 0.00 0.00 0.00 81 1012.3
20260906025507 61 323 20.9 33.0 0.00 0.00 0.00 82 1012.2
20260906024505 61 318 23.5 31.3 0.00 0.00 0.00 80 1012.4
20260906023005 62 319 21.7 30.4 0.00 0.00 0.00 79 1012.4
20260906022505 62 321 21.7 28.7 0.00 0.00 0.00 80 1012.3
20260906022007 62 327 18.2 31.3 0.00 0.00 0.00 79 1012.4
20260906021505 62 323 17.4 24.3 0.00 0.00 0.00 82 1012.5
20260906015505 61 318 23.5 31.3 0.00 0.00 0.00 78 1012.7
20260906015005 61 320 20.0 26.9 0.00 0.00 0.00 78 1012.8
20260906014007 61 319 22.6 30.4 0.00 0.00 0.00 76 1012.7
20260906012506 62 320 20.9 31.3 0.00 0.00 0.00 75 1013.0
20260906012005 62 322 19.1 26.1 0.00 0.00 0.00 75 1013.2
20260906011505 62 324 19.1 27.8 0.00 0.00 0.00 76 1013.2
20260906011005 62 310 17.4 26.9 0.00 0.00 0.00 75 1013.1
20260906010506 62 319 22.6 32.2 0.00 0.00 0.00 74 1013.4
20260906010005 62 317 20.9 28.7 0.00 0.00 0.00 74 1013.2
20260906005505 62 317 21.7 26.9 0.00 0.00 0.00 74 1013.4
20260906004507 62 320 21.7 28.7 0.00 0.00 0.00 77 1013.8
20260906004005 62 331 22.6 30.4 0.00 0.00 0.00 76 1013.9
20260906003006 62 316 24.3 32.2 0.00 0.00 0.00 75 1014.0
20260906001005 61 320 20.9 27.8 0.00 0.00 0.00 76 1014.4
20260906000006 61 315 20.9 30.4 0.00 0.00 0.00 76 1014.7
20260905235005 61 324 19.1 26.9 0.00 0.00 0.00 76 1014.8
20260905234504 61 322 13.0 20.9 0.00 0.00 0.00 77 1014.9
20260905233505 61 322 20.9 27.8 0.00 0.00 0.00 76 1015.0
20260905233007 61 321 18.2 26.9 0.00 0.00 0.00 75 1015.0
20260905232507 61 314 17.4 24.3 0.00 0.00 0.00 75 1015.2
20260905232005 61 327 18.2 22.6 0.00 0.00 0.00 76 1015.2
20260905231505 61 313 15.6 26.1 0.00 0.00 0.00 76 1015.3
20260905231005 61 321 21.7 27.8 0.00 0.00 0.00 76 1015.2
20260905230506 62 319 20.9 27.8 0.00 0.00 0.00 77 1015.3
20260905224506 60 331 15.6 24.3 0.00 0.00 0.00 79 1015.5
20260905223505 60 325 21.7 26.9 0.00 0.00 0.00 79 1015.6
20260905223007 60 316 18.2 24.3 0.00 0.00 0.00 81 1015.7
20260905222505 59 317 17.4 22.6 0.00 0.00 0.00 80 1015.8
20260905222006 59 320 17.4 22.6 0.00 0.00 0.00 81 1016.0
20260905221506 59 319 15.6 20.9 0.00 0.00 0.00 81 1016.0
20260905221005 59 329 14.8 20.9 0.00 0.00 0.00 81 1016.0
20260905215005 60 325 12.2 19.1 0.00 0.00 0.00 81 1016.2
20260905214507 60 326 13.9 21.7 0.00 0.00 0.00 81 1016.4
20260905213006 60 323 14.8 20.0 0.00 0.00 0.00 82 1016.6
20260905212505 59 313 13.9 24.3 0.00 0.00 0.00 81 1016.7
20260905211506 59 327 14.8 20.9 0.00 0.00 0.00 82 1016.6